Flag for USA

Past Weather in Washington Avenue Historic District, Georgia, USA — Yesterday and Last 2 Weeks

Now
33 °F

Overcast.


Feels Like: 22 °F
Forecast: 52 / 29 °F
Wind: 18 mph from Northwest

Location: Fulton County Airport-Brown Field

Current Time: Jan 20, 2019 at 8:31:50 am

Latest Report: Jan 20, 2019 at 7:53 am


Visibility: 10 mi

Pressure: 29.89 "Hg

Humidity: 78%

Dew Point: 27 °F

Location of Washington Avenue Historic DistrictLocation

Past Weather in Washington Avenue Historic District — Graph

°F

Washington Avenue Historic District Temperature Yesterday

Maximum temperature yesterday: 63 °F (at 2:53 pm)
Minimum temperature yesterday: 46 °F (at 12:53 am)
Average temperature yesterday: 55 °F

High & Low Weather Summary for the Past Weeks

 TemperatureHumidityPressure
High69 °F (Jan 7, 2:53 pm)100% (Jan 6, 5:53 am)30.34 "Hg (Jan 6, 5:53 am)
Low27 °F (Jan 11, 5:53 am)26% (Jan 9, 2:53 pm)29.50 "Hg (Jan 19, 5:53 pm)
Average45 °F77%30.14 "Hg
* Reported Jan 5 6:53 am — Jan 20 6:53 am, Washington Avenue Historic District. Weather by CustomWeather, © 2019

Note: Actual official high and low records may vary slightly from our data, if they occured in-between our weather recording intervals... More about our weather records

Advertising

Washington Avenue Historic District Weather History for the Previous 24 Hours

Scroll right to see more
 ConditionsComfort  
Time TempWeatherWind HumidityBarometerVisibility
6:53 am
Sun, Jan 20
33 °FOvercast.17 mph82%29.83 "Hg10 mi
5:53 am35 °FMostly cloudy.15 mph75%29.79 "Hg10 mi
4:53 am35 °FOvercast.15 mph82%29.77 "Hg10 mi
3:53 am37 °FMostly cloudy.20 mph82%29.75 "Hg10 mi
3:38 am37 °FMostly cloudy.12 mph82%29.75 "Hg10 mi
2:53 am39 °FMostly cloudy.13 mph76%29.73 "Hg10 mi
2:38 am40 °FMostly cloudy.16 mph77%29.72 "Hg10 mi
1:53 am42 °FMostly cloudy.10 mph85%29.67 "Hg10 mi
12:53 am46 °FOvercast.17 mph89%29.64 "Hg10 mi
12:42 am47 °FMostly cloudy.18 mph86%29.64 "Hg10 mi
12:26 am50 °FMostly cloudy.22 mph86%29.63 "Hg10 mi
11:53 pm
Sat, Jan 19
53 °FPartly cloudy.10 mph86%29.59 "Hg10 mi
10:53 pm54 °FPassing clouds.7 mph90%29.58 "Hg10 mi
10:20 pm55 °FLight rain. Mostly cloudy.10 mph93%29.59 "Hg10 mi
10:05 pm55 °FLight rain. Fog.8 mph96%29.59 "Hg6 mi
9:53 pm56 °FOvercast.7 mph90%29.57 "Hg10 mi
8:53 pm58 °FPassing clouds.13 mph87%29.56 "Hg10 mi
7:53 pm59 °FPassing clouds.7 mph100%29.55 "Hg10 mi
5:53 pm59 °FLight rain. Mostly cloudy.20 mph96%29.50 "Hg9 mi
4:53 pm60 °FHeavy rain. Fog.10 mph100%29.58 "Hg3 mi
3:53 pm61 °FRain. Overcast.12 mph97%29.59 "Hg7 mi
2:53 pm63 °FLight rain. Mostly cloudy.12 mph90%29.64 "Hg10 mi
1:53 pm62 °FMostly cloudy.15 mph93%29.69 "Hg10 mi
12:53 pm61 °FLight rain. Fog.14 mph97%29.77 "Hg6 mi
11:53 am60 °FFog.13 mph100%29.82 "Hg6 mi
11:13 am58 °FFog.12 mph100%29.85 "Hg5 mi
10:52 am57 °FLight rain. Fog.12 mph100%29.87 "Hg2 mi
9:53 am55 °FFog.8 mph100%29.87 "Hg5 mi
9:25 am54 °FLight rain. Fog.9 mph100%29.88 "Hg3 mi
8:53 am54 °FFog.9 mph100%29.88 "Hg2 mi
8:36 am53 °FFog.7 mph100%29.88 "Hg2 mi
Weather by CustomWeather, © 2019

See weather overview

LIVE TOTAL LUNAR ECLIPSE – Watch the eclipse as it happens